Weather Roundup
Issued by NWS Chicago, IL

Home | Current Version | Previous Version | Text Only | Print | Product List | Glossary On
Versions: 1 2 3 4 5 6 7 8 9 10 11 12 13 14 15 16 17 18 19 20 21 22 23 24 25 26 27 28 29 30 31 32 33 34 35 36 37 38 39 40 41 42 43 44 45 46 47 48 49 50
000
NZUS59 KLOT 312010
HRRLOT

CHICAGO AREA WEATHER ROUNDUP
NATIONAL WEATHER SERVICE CHICAGO/ROMEOVILLE IL
300 PM CDT FRI OCT 31 2014

NOTE: "FAIR" INDICATES FEW OR NO CLOUDS BELOW 12,000 FEET WITH NO
SIGNIFICANT WEATHER AND/OR OBSTRUCTIONS TO VISIBILITY.

* THESE STATIONS ARE NOT UNDER NWS QUALITY CONTROL. THEY ALSO MAY NOT
  REPORT WEATHER SUCH AS PRECIPITATION OR FOG.

ILZ005-006-012>014-019>023-312100-
NORTHEAST ILLINOIS

CITY           SKY/WX    TMP DP  RH WIND       PRES   REMARKS
OHARE          CLOUDY    39  23  52 N26G37    30.19R
MIDWAY         LGT SNOW  39  30  70 N25G38    30.18R
AURORA         CLOUDY    41  20  43 N31G44    30.22R
LANSING*       LGT RAIN  38  33  81 N16G33    30.14R
JOLIET*        CLOUDY    39  22  51 N17G35    30.20R
WAUKEGAN       CLOUDY    37  23  56 N25G37    30.21R
DUPAGE AIRPORT CLOUDY    39  21  48 N32G44    30.22R
WHEELING       CLOUDY    40  22  48 N30G45    30.23R
KANKAKEE*      CLOUDY    41  26  55 N26G45    30.15R
MORRIS*        CLOUDY    41  24  51 N17G32    30.21R
LEWIS AIRPORT* CLOUDY    40  22  50 N22G36    30.19R
NORTHERLY IS     N/A     40  34  79 NW26        N/A
$$

WIZ051-052-058>065-066-070>072-312100-
SOUTHEAST WISCONSIN

CITY           SKY/WX    TMP DP  RH WIND       PRES   REMARKS
MILWAUKEE      CLOUDY    38  21  50 N22G36    30.26R
KENOSHA*       CLOUDY    39  22  50 N24G35    30.24R
RACINE*        CLOUDY    38  23  55 N25G40    30.25R
BURLINGTON     CLOUDY    37  20  51 N20G33    30.27R
WAUKESHA       CLOUDY    36  19  51 N18G29    30.28R
WEST BEND      CLOUDY    36  21  55 N20G26    30.29R
$$

INZ001>003-010>013-019-020-312100-
NORTHWEST INDIANA

CITY           SKY/WX    TMP DP  RH WIND       PRES   REMARKS
GARY*          LGT RAIN  41  34  75 NW45G67   30.13R
MICHIGAN CITY* NOT AVBL
RENSSELAER*    NOT AVBL
VALPARAISO     RAIN      37  36  96 N20G39    30.07R FOG
$$

LMZ740>746-312100-
SOUTHERN LAKE MICHIGAN

STATION/POSITION TIME  SKY/WX   TEMP WIND        PRES    VSBY
                                AIR  DIR/SP/G
                 (UTC)          (F)  (DEG/KT/KT) (MB)    (MI)
HARRISON CRIB    1900            40  340/ 46/ 58   N/A
BURNHAM HARBOR   2000            40  330/ 29/ 35   N/A
CALUMET HARBOR   2000            40  340/ 28/ 38 1019.8R
BURNS HARBOR     NOT AVBL
MICHIGAN CITY    2000            40  350/ 46/ 55   N/A
$$

ABBREVIATIONS USED IN REMARKS
   TC - TEMPERATURE IN CELSIUS
  WCI - WIND CHILL INDEX
   HX - HEAT INDEX
  VSB - VISIBILITY
$$



USA.gov is the U.S. government's official web portal to all federal, state and local government web resources and services.